Flag Weather past 2 weeks in Homberg (Efze), Hesse, Germany

Now
48 °F

Partly sunny.


Feels Like: 48 °F
Forecast: 33 / 42 °F
Wind: 2 mph from North

Location: Fritzlar

Current Time: Nov 24, 2014 at 4:35:06 PM

Latest Report: Nov 24, 2014 at 4:00 PM


Visibility: 16 mi

Pressure: 30.29 "Hg

Humidity: 69%

Dew point: 38 °F

Location of Homberg (Efze)Location

Historic Weather in Homberg (Efze) — Graph

°F

Homberg (Efze) temperature yesterday

Maximum temperature yesterday: 49 °F (at 2:00 PM)
Minimum temperature yesterday: 38 °F (at 8:00 AM)
Average temperature yesterday: 42 °F

Past Weeks' High & Low Weather Summary

 TemperatureHumidityPressure
High53 °F (Nov 11, 3:00 PM)98% (Nov 9, 11:00 PM)30.36 "Hg (Nov 9, 11:00 PM)
Low29 °F (Nov 22, 8:00 AM)67% (Nov 24, 3:00 PM)29.50 "Hg (Nov 16, 5:00 AM)
Average45 °F90%29.94 "Hg
* Reported Nov 9 3:00 PM — Nov 24 3:00 PM, Homberg (Efze), Weather by CustomWeather, © 2014

Note: Actual official high and low records may vary slightly from our data, if they occured in-between our weather recording intervals... More about our weather records

Advertising

Homberg (Efze) weather history for previous 24 hours

 ConditionsComfort  
Time TempWeatherWind HumidityBarometerVisibility
3:00 PM
Nov 24
49 °FScattered clouds.3 mph67%30.28 "Hg16 mi
2:00 PM49 °FScattered clouds.3 mph71%30.27 "Hg16 mi
1:00 PM48 °FPartly sunny.5 mph77%30.27 "Hg16 mi
12:00 PM47 °FPartly sunny.3 mph80%30.27 "Hg12 mi
11:00 AM46 °FOvercast.2 mph96%30.25 "Hg7 mi
10:00 AM45 °FDrizzle. Low clouds.1 mph96%30.23 "Hg2 mi
9:00 AM45 °FDrizzle. Overcast.N/A92%30.21 "Hg3 mi
8:00 AM45 °FDrizzle. Overcast.2 mph91%30.17 "Hg7 mi
7:00 AM46 °FRain. Overcast.2 mph87%30.16 "Hg11 mi
6:00 AM45 °FOvercast.3 mph89%30.12 "Hg11 mi
5:00 AM44 °FOvercast.2 mph89%30.09 "Hg11 mi
4:00 AM44 °FOvercast.2 mph86%30.08 "Hg11 mi
3:00 AM42 °FOvercast.2 mph90%30.09 "Hg11 mi
2:00 AM45 °FPassing clouds.3 mph84%30.09 "Hg11 mi
1:00 AM45 °FOvercast.5 mph83%30.08 "Hg11 mi
12:00 AM46 °FOvercast.3 mph81%30.09 "Hg11 mi
11:00 PM
Nov 23
45 °FOvercast.5 mph84%30.09 "Hg11 mi
10:00 PM44 °FOvercast.3 mph84%30.10 "Hg11 mi
9:00 PM44 °FPassing clouds.N/A85%30.10 "Hg11 mi
8:00 PM42 °FPassing clouds.2 mph90%30.10 "Hg10 mi
7:00 PM42 °FPassing clouds.3 mph93%30.10 "Hg10 mi
6:00 PM42 °FPassing clouds.1 mph95%30.11 "Hg10 mi
5:00 PM46 °FPassing clouds.2 mph88%30.10 "Hg11 mi
4:00 PM48 °FPartly sunny.2 mph84%30.12 "Hg11 mi
Weather by CustomWeather, © 2014

See weather overviewHow to use our weather pages